Cumberland, WV

6:27 AM EDT on June 28, 2017 (GMT -0400)
Greater Cumberland Regional

Weather History for KCBE - August, 2014

Change the Weather History Date:

Saturday, August 16, 2014

  Actual Average (KMRB) Record (KMRB)
Temperature  
Mean Temperature 66 °F -  
Max Temperature 86 °F 86 °F 101 °F (1997)
Min Temperature 46 °F 62 °F 48 °F (2014)
Cooling Degree Days 1    
Growing Degree Days 16 (Base 50)    
Moisture  
Dew Point 49 °F    
Average Humidity 60    
Maximum Humidity 94    
Minimum Humidity 20    
Precipitation  
Precipitation 0.00 in - - ()
Sea Level Pressure  
Sea Level Pressure 30.05 in    
Wind  
Wind Speed 3 mph (SSW)    
Max Wind Speed 10 mph    
Max Gust Speed 17 mph    
Visibility 9 miles    
Events      
Averages and records for this station are not official NWS values.
T = Trace of Precipitation, MM = Missing Value Source: NWS Daily Summary

Daily Weather History Graph

Daily Weather History Graph

Search for Another Location

Airport or City:

Trip Planner

Search our weather history database for the weather conditions in past years. The results will help you decide how hot, cold, wet, or windy it might be!

Date:

Astronomy

Aug. 16, 2014 Rise Set
Actual Time 6:28 AM EDT 8:09 PM EDT
Civil Twilight 5:59 AM EDT 8:38 PM EDT
Nautical Twilight 5:24 AM EDT 9:12 PM EDT
Astronomical Twilight 4:47 AM EDT 9:49 PM EDT
Moon 11:53 PM EDT (8/16) 1:10 PM EDT (8/16)
Length of Visible Light 14h 38m
Length of Day
13h 41m
Waning Gibbous, 59% of the Moon is Illuminated
Aug 16
Waning Gibbous
Aug 17
Last Quarter
Aug 25
New
Sep 2
First Quarter
Sep 8
Full

Hourly Weather History & Observations

Time (EDT) Temp. Heat Index Dew Point Humidity Pressure Visibility Wind Dir Wind Speed Gust Speed Precip Events Conditions
12:01 AM 55.4 °F - 51.8 °F 88% 30.08 in 10.0 mi Calm Calm - N/A   Clear
12:21 AM 53.6 °F - 50.0 °F 88% 30.08 in 10.0 mi NNE 3.5 mph - N/A   Clear
12:41 AM 53.6 °F - 51.8 °F 94% 30.08 in 10.0 mi NNE 3.5 mph - N/A   Clear
1:21 AM 51.8 °F - 50.0 °F 94% 30.09 in 10.0 mi Calm Calm - N/A   Clear
1:41 AM 53.6 °F - 50.0 °F 88% 30.09 in 10.0 mi NNE 3.5 mph - N/A   Clear
2:01 AM 53.6 °F - 50.0 °F 88% 30.08 in 10.0 mi NNW 4.6 mph - N/A   Clear
2:21 AM 53.6 °F - 50.0 °F 88% 30.08 in 10.0 mi Calm Calm - N/A   Clear
2:41 AM 51.8 °F - 48.2 °F 88% 30.08 in 10.0 mi ENE 4.6 mph - N/A   Clear
3:01 AM 51.8 °F - 48.2 °F 88% 30.07 in 10.0 mi Calm Calm - N/A   Clear
3:21 AM 51.8 °F - 48.2 °F 88% 30.07 in 10.0 mi NNW 3.5 mph - N/A   Clear
3:42 AM 51.8 °F - 50.0 °F 94% 30.08 in 10.0 mi NNE 4.6 mph - N/A   Clear
4:02 AM 50.0 °F - 46.4 °F 87% 30.08 in 7.0 mi Calm Calm - N/A   Clear
4:22 AM 50.0 °F - 46.4 °F 87% 30.09 in 2.5 mi Calm Calm - N/A   Clear
4:42 AM 50.0 °F - 46.4 °F 87% 30.09 in 3.0 mi Calm Calm - N/A   Clear
5:02 AM 50.0 °F - 46.4 °F 87% 30.09 in 4.0 mi Calm Calm - N/A   Clear
5:22 AM 48.2 °F - 46.4 °F 93% 30.08 in 10.0 mi Calm Calm - N/A   Clear
5:42 AM 48.2 °F - 46.4 °F 93% 30.09 in 10.0 mi Calm Calm - N/A   Clear
6:02 AM 46.4 °F - 44.6 °F 93% 30.09 in 1.2 mi Calm Calm - N/A   Unknown
6:22 AM 46.4 °F - 44.6 °F 93% 30.10 in 7.0 mi Calm Calm - N/A   Clear
6:42 AM 46.4 °F - 44.6 °F 93% 30.09 in 10.0 mi Calm Calm - N/A   Scattered Clouds
7:22 AM 48.2 °F - 46.4 °F 93% 30.10 in 0.8 mi Calm Calm - N/A   Mostly Cloudy
7:42 AM 51.8 °F - 50.0 °F 94% 30.11 in 10.0 mi Calm Calm - N/A   Clear
8:02 AM 51.8 °F - 50.0 °F 94% 30.11 in 10.0 mi Calm Calm - N/A   Clear
8:22 AM 53.6 °F - 51.8 °F 94% 30.10 in 10.0 mi Calm Calm - N/A   Clear
8:42 AM 55.4 °F - 53.6 °F 94% 30.11 in 10.0 mi Calm Calm - N/A   Clear
9:02 AM 59.0 °F - 53.6 °F 82% 30.10 in 10.0 mi Calm Calm - N/A   Clear
9:22 AM 60.8 °F - 51.8 °F 72% 30.10 in 10.0 mi Calm Calm - N/A   Clear
9:42 AM 62.6 °F - 51.8 °F 68% 30.10 in 10.0 mi Calm Calm - N/A   Clear
10:02 AM 62.6 °F - 53.6 °F 72% 30.10 in 10.0 mi Calm Calm - N/A   Clear
10:22 AM 68.0 °F - 53.6 °F 60% 30.10 in 10.0 mi Calm Calm - N/A   Clear
10:42 AM 69.8 °F - 53.6 °F 56% 30.09 in 10.0 mi Calm Calm - N/A   Clear
11:02 AM 69.8 °F - 53.6 °F 56% 30.09 in 10.0 mi SE 3.5 mph - N/A   Clear
11:22 AM 71.6 °F - 53.6 °F 53% 30.08 in 10.0 mi South 4.6 mph - N/A   Clear
11:42 AM 71.6 °F - 53.6 °F 53% 30.07 in 10.0 mi South 3.5 mph - N/A   Clear
12:02 PM 73.4 °F - 53.6 °F 50% 30.06 in 10.0 mi SSE 4.6 mph - N/A   Clear
12:23 PM 77.0 °F - 53.6 °F 44% 30.06 in 10.0 mi SSE 3.5 mph - N/A   Clear
12:43 PM 78.8 °F - 51.8 °F 39% 30.06 in 10.0 mi East 3.5 mph - N/A   Clear
1:03 PM 78.8 °F - 51.8 °F 39% 30.05 in 10.0 mi SSE 4.6 mph - N/A   Clear
1:23 PM 80.6 °F 80.3 °F 53.6 °F 39% 30.05 in 10.0 mi ESE 4.6 mph - N/A   Clear
1:43 PM 82.4 °F - 51.8 °F 35% 30.04 in 10.0 mi South 3.5 mph - N/A   Clear
2:03 PM 80.6 °F - 51.8 °F 37% 30.03 in 10.0 mi SSE 6.9 mph - N/A   Clear
2:23 PM 82.4 °F - 50.0 °F 32% 30.02 in 10.0 mi SSW 9.2 mph - N/A   Clear
2:43 PM 84.2 °F - 46.4 °F 27% 30.01 in 10.0 mi SW 8.1 mph - N/A   Clear
3:03 PM 84.2 °F - 46.4 °F 27% 30.00 in 10.0 mi SSW 6.9 mph - N/A   Clear
3:23 PM 86.0 °F - 46.4 °F 25% 30.00 in 10.0 mi SSW 8.1 mph 16.1 mph N/A   Clear
3:43 PM 84.2 °F - 44.6 °F 25% 30.00 in 10.0 mi SW 9.2 mph - N/A   Clear
4:03 PM 86.0 °F - 44.6 °F 23% 29.99 in 10.0 mi SW 9.2 mph - N/A   Clear
4:23 PM 86.0 °F - 42.8 °F 22% 29.99 in 10.0 mi SSW 10.4 mph - N/A   Clear
4:43 PM 86.0 °F - 42.8 °F 22% 30.00 in 10.0 mi SW 5.8 mph - N/A   Clear
5:03 PM 86.0 °F - 42.8 °F 22% 29.99 in 10.0 mi WSW 5.8 mph - N/A   Clear
5:23 PM 86.0 °F - 41.0 °F 20% 30.00 in 10.0 mi SW 10.4 mph 17.3 mph N/A   Clear
5:43 PM 86.0 °F - 42.8 °F 22% 29.99 in 10.0 mi West 5.8 mph - N/A   Clear
6:03 PM 84.2 °F - 44.6 °F 25% 29.99 in 10.0 mi West 10.4 mph - N/A   Clear
6:23 PM 82.4 °F - 44.6 °F 26% 29.99 in 10.0 mi WSW 8.1 mph - N/A   Clear
6:43 PM 82.4 °F - 44.6 °F 26% 29.99 in 10.0 mi West 3.5 mph - N/A   Clear
7:03 PM 80.6 °F - 46.4 °F 30% 29.99 in 10.0 mi WSW 6.9 mph - N/A   Clear
7:23 PM 78.8 °F - 46.4 °F 32% 30.00 in 10.0 mi WSW 9.2 mph 17.3 mph N/A   Clear
7:43 PM 78.8 °F - 46.4 °F 32% 30.00 in 10.0 mi SW 5.8 mph - N/A   Clear
8:03 PM 75.2 °F - 46.4 °F 36% 30.00 in 10.0 mi SW 5.8 mph - N/A   Clear
8:23 PM 73.4 °F - 48.2 °F 41% 30.00 in 10.0 mi SW 6.9 mph - N/A   Clear
8:43 PM 73.4 °F - 50.0 °F 44% 30.00 in 10.0 mi Calm Calm - N/A   Clear
10:04 PM 69.8 °F - 48.2 °F 46% 30.01 in 10.0 mi Calm Calm - N/A   Clear
10:44 PM 68.0 °F - 53.6 °F 60% 30.01 in 10.0 mi Calm Calm - N/A   Clear
11:04 PM 68.0 °F - 53.6 °F 60% 30.01 in 10.0 mi Calm Calm - N/A   Clear
11:24 PM 66.2 °F - 55.4 °F 68% 30.01 in 10.0 mi Calm Calm - N/A   Scattered Clouds
11:44 PM 66.2 °F - 53.6 °F 64% 30.01 in 10.0 mi Calm Calm - N/A   Mostly Cloudy